GW4147 Weather Reports


Display with metric or nautical units.
time (UTC)temp
F
wind
direction
speed
MPH
gust
MPH
rain 1hr
in
rain 24hr
in
rain mn
in
humidity
%
barometer
mb
20260509124548 67 347 2.0 2.0 0.00 0.00 0.00 95 1012.0
20260509124045 67 318 3.0 4.0 0.00 0.00 0.00 95 1011.9
20260509123543 67 328 4.0 5.0 0.00 0.00 0.00 96 1011.9
20260509123039 67 331 3.0 5.0 0.00 0.00 0.00 96 1011.7
20260509122536 66 268 2.0 2.0 0.00 0.00 0.00 96 1011.8
20260509122033 66 20 0.0 3.0 0.00 0.00 0.00 96 1011.7
20260509121529 66 223 2.0 3.0 0.00 0.00 0.00 96 1011.7
20260509121027 66 312 4.0 5.0 0.00 0.00 0.00 96 1011.6
20260509120525 66 0 1.0 2.0 0.00 0.00 0.00 96 1011.6
20260509120023 66 251 4.0 5.0 0.00 0.00 0.00 96 1011.7
20260509115520 66 253 1.0 3.0 0.00 0.00 0.00 96 1011.5
20260509115018 66 290 0.0 2.0 0.00 0.00 0.00 96 1011.2
20260509114515 65 348 1.0 2.0 0.00 0.00 0.00 96 1011.3
20260509114014 65 301 1.0 3.0 0.00 0.00 0.00 95 1011.2
20260509113512 65 334 1.0 4.0 0.00 0.00 0.00 95 1011.1
20260509113010 65 260 0.0 2.0 0.00 0.00 0.00 95 1011.3
20260509112506 65 241 2.0 3.0 0.00 0.00 0.00 95 1011.0
20260509112002 66 258 1.0 2.0 0.00 0.00 0.00 95 1010.7
20260509111500 66 66 1.0 1.0 0.00 0.00 0.00 95 1010.5
20260509110957 66 334 1.0 2.0 0.00 0.00 0.00 94 1010.4
20260509110453 66 18 0.0 3.0 0.00 0.00 0.00 94 1010.2
20260509105951 66 352 3.0 3.0 0.00 0.00 0.00 94 1010.3
20260509105449 66 5 2.0 3.0 0.00 0.00 0.00 94 1010.2
20260509104946 66 37 0.0 2.0 0.00 0.00 0.00 94 1010.4
20260509104443 66 333 0.0 2.0 0.00 0.00 0.00 94 1010.1
20260509103940 67 329 1.0 3.0 0.00 0.00 0.00 94 1010.2
20260509103438 67 1 1.0 3.0 0.00 0.00 0.00 94 1010.1
20260509102936 67 25 1.0 2.0 0.00 0.00 0.00 93 1010.0
20260509102433 67 342 1.0 2.0 0.00 0.00 0.00 93 1010.2
20260509101929 67 316 1.0 2.0 0.00 0.00 0.00 93 1010.1
20260509101425 67 116 1.0 3.0 0.00 0.00 0.00 93 1010.0
20260509100923 67 108 2.0 3.0 0.00 0.00 0.00 93 1009.7
20260509100420 67 96 2.0 5.0 0.00 0.00 0.00 92 1009.8
20260509095916 68 117 3.0 6.0 0.00 0.00 0.00 92 1009.4
20260509095414 68 92 3.0 6.0 0.00 0.00 0.00 92 1009.3
20260509094911 68 106 3.0 8.0 0.00 0.00 0.00 92 1009.1
20260509094407 68 64 4.0 6.0 0.00 0.00 0.00 91 1009.3
20260509093905 68 49 4.0 8.0 0.00 0.00 0.00 91 1009.4
20260509093402 68 67 3.0 5.0 0.00 0.00 0.00 91 1009.5
20260509092900 68 93 3.0 4.0 0.00 0.00 0.00 90 1009.2
20260509092357 68 56 5.0 9.0 0.00 0.00 0.00 90 1009.2
20260509091856 68 80 2.0 10.0 0.00 0.00 0.00 90 1009.2
20260509091352 68 88 6.0 8.0 0.00 0.00 0.00 90 1009.6
20260509090850 68 120 10.0 12.0 0.00 0.00 0.00 90 1009.5
20260509090347 68 71 5.0 9.0 0.00 0.00 0.00 90 1009.7
20260509085844 69 55 3.0 10.0 0.00 0.00 0.00 90 1009.5
20260509085341 69 63 5.0 8.0 0.00 0.00 0.00 90 1009.5
20260509084838 69 81 4.0 8.0 0.00 0.00 0.00 90 1009.4
20260509084335 69 100 5.0 6.0 0.00 0.00 0.00 90 1009.3
20260509083833 69 74 5.0 9.0 0.00 0.00 0.00 90 1009.2
20260509083329 69 58 4.0 7.0 0.00 0.00 0.00 89 1009.3
20260509082826 69 339 4.0 7.0 0.00 0.00 0.00 88 1009.3
20260509082322 70 358 6.0 15.0 0.00 0.00 0.00 87 1009.5
20260509081820 70 42 6.0 6.0 0.00 0.00 0.00 88 1008.5
20260509081317 70 160 5.0 8.0 0.00 0.00 0.00 88 1008.0
20260509080815 70 120 3.0 9.0 0.00 0.00 0.00 89 1008.2
20260509080312 69 192 2.0 11.0 0.00 0.00 0.00 89 1008.0
20260509075810 69 171 3.0 7.0 0.00 0.00 0.00 89 1008.3
20260509075307 69 190 3.0 6.0 0.00 0.00 0.00 89 1008.5
20260509074804 69 181 4.0 4.0 0.00 0.00 0.00 89 1008.9
20260509074302 69 213 3.0 7.0 0.00 0.00 0.00 89 1009.4
20260509073758 69 132 3.0 6.0 0.00 0.00 0.00 89 1009.5
20260509073254 69 169 3.0 5.0 0.00 0.00 0.00 89 1009.8
20260509072751 69 189 2.0 6.0 0.00 0.00 0.00 89 1010.1
20260509072248 69 177 2.0 7.0 0.00 0.00 0.00 89 1010.0
20260509071744 69 266 1.0 3.0 0.00 0.00 0.00 89 1010.3
20260509071242 69 89 0.0 5.0 0.00 0.00 0.00 89 1010.3
20260509070738 69 134 3.0 3.0 0.00 0.00 0.00 89 1010.9
20260509070235 69 120 1.0 3.0 0.00 0.00 0.00 89 1010.7
20260509065731 69 78 2.0 4.0 0.00 0.00 0.00 89 1010.8
20260509065228 69 104 0.0 3.0 0.00 0.00 0.00 89 1010.7
20260509064724 69 138 3.0 4.0 0.00 0.00 0.00 88 1010.6
20260509064222 69 238 1.0 5.0 0.00 0.00 0.00 88 1011.0
20260509063719 69 327 2.0 4.0 0.00 0.00 0.00 88 1011.1
20260509063215 69 197 4.0 9.0 0.00 0.00 0.00 87 1010.8
20260509062713 69 202 5.0 8.0 0.00 0.00 0.00 87 1011.2
20260509062210 69 230 7.0 12.0 0.00 0.00 0.00 87 1011.3
20260509061707 69 198 7.0 7.0 0.00 0.00 0.00 87 1011.2
20260509061204 69 213 6.0 13.0 0.00 0.00 0.00 88 1011.0
20260509060701 68 212 4.0 10.0 0.00 0.00 0.00 88 1010.8
20260509060158 68 208 2.0 7.0 0.00 0.00 0.00 89 1010.7
20260509055654 68 215 3.0 6.0 0.00 0.00 0.00 88 1010.7
20260509055149 68 257 2.0 3.0 0.00 0.00 0.00 87 1010.6
20260509054646 68 201 3.0 5.0 0.00 0.00 0.00 87 1010.7
20260509054144 68 244 0.0 4.0 0.00 0.00 0.00 87 1010.8
20260509053642 68 213 1.0 5.0 0.00 0.00 0.00 87 1010.8
20260509053138 68 217 5.0 6.0 0.00 0.00 0.00 87 1011.0
20260509052636 68 188 1.0 5.0 0.00 0.00 0.00 87 1010.8
20260509052134 68 175 4.0 5.0 0.00 0.00 0.00 86 1011.2
20260509051632 69 180 3.0 3.0 0.00 0.00 0.00 85 1011.8
20260509051128 69 153 2.0 4.0 0.00 0.00 0.00 84 1011.7
20260509050626 70 195 3.0 3.0 0.00 0.00 0.00 83 1012.0
20260509050122 70 225 3.0 4.0 0.00 0.00 0.00 83 1012.4
20260509045620 70 251 4.0 4.0 0.00 0.15 0.15 83 1012.3
20260509045116 70 248 5.0 5.0 0.00 0.15 0.15 82 1012.6
20260509044613 70 342 3.0 5.0 0.00 0.15 0.15 82 1012.9
20260509044111 71 354 4.0 7.0 0.00 0.15 0.15 81 1013.1
20260509043607 71 332 6.0 8.0 0.00 0.15 0.15 81 1013.0
20260509043103 71 329 3.0 6.0 0.00 0.15 0.15 81 1012.4
20260509042559 70 313 3.0 3.0 0.00 0.15 0.15 81 1011.8
20260509042055 71 273 1.0 4.0 0.00 0.15 0.15 81 1011.3
20260509041552 71 215 3.0 6.0 0.00 0.15 0.15 81 1011.2
20260509041050 71 184 3.0 5.0 0.00 0.15 0.15 81 1011.0
20260509040548 71 199 3.0 5.0 0.00 0.15 0.15 80 1011.0
20260509040044 71 204 4.0 4.0 0.00 0.15 0.15 80 1011.1
20260509035541 71 190 1.0 4.0 0.00 0.15 0.15 80 1011.1
20260509035038 71 141 0.0 3.0 0.00 0.15 0.15 79 1011.1
20260509034536 71 120 3.0 5.0 0.00 0.15 0.15 78 1011.1
20260509034033 71 80 8.0 8.0 0.00 0.15 0.15 79 1011.6
20260509033530 71 82 3.0 4.0 0.00 0.15 0.15 79 1010.8
20260509033027 71 187 2.0 6.0 0.00 0.15 0.15 79 1010.4
20260509032524 71 161 3.0 5.0 0.00 0.15 0.15 79 1010.5
20260509032021 71 26 0.0 4.0 0.00 0.15 0.15 79 1010.5
20260509031519 71 178 5.0 7.0 0.00 0.15 0.15 79 1010.1
20260509031016 71 191 4.0 10.0 0.00 0.15 0.15 79 1010.1
20260509030514 71 185 5.0 7.0 0.00 0.15 0.15 79 1010.7
20260509030010 71 125 2.0 4.0 0.00 0.15 0.15 78 1011.6
20260509025506 71 20 5.0 5.0 0.00 0.15 0.15 78 1012.1
20260509025002 71 24 3.0 5.0 0.00 0.15 0.15 78 1012.0
20260509024458 71 38 2.0 5.0 0.00 0.15 0.15 79 1011.9
20260509023955 71 44 4.0 5.0 0.00 0.15 0.15 79 1011.6
20260509023452 71 353 2.0 4.0 0.00 0.15 0.15 79 1011.2
20260509022949 71 40 2.0 3.0 0.00 0.15 0.15 79 1011.1
20260509022446 71 92 2.0 3.0 0.00 0.15 0.15 79 1010.8
20260509021943 71 124 0.0 4.0 0.00 0.15 0.15 79 1010.5
20260509021439 71 60 1.0 3.0 0.00 0.15 0.15 79 1010.3
20260509020938 71 124 2.0 3.0 0.00 0.15 0.15 78 1010.0
20260509020436 71 127 4.0 4.0 0.00 0.15 0.15 78 1010.0
20260509015932 71 26 0.0 5.0 0.00 0.15 0.15 78 1009.5
20260509015431 71 218 3.0 6.0 0.00 0.15 0.15 78 1009.4
20260509014927 71 137 2.0 6.0 0.00 0.15 0.15 77 1009.3
20260509014423 71 192 3.0 4.0 0.00 0.15 0.15 77 1009.5
20260509013920 71 205 3.0 7.0 0.00 0.15 0.15 76 1009.4
20260509013417 72 131 1.0 4.0 0.00 0.15 0.15 76 1009.5
20260509012912 72 201 3.0 5.0 0.00 0.15 0.15 75 1009.5
20260509012409 72 190 6.0 9.0 0.00 0.15 0.15 74 1009.3
20260509011907 72 193 5.0 6.0 0.00 0.15 0.15 74 1009.5
20260509011404 73 201 5.0 6.0 0.00 0.15 0.15 73 1009.5
20260509010902 73 203 2.0 5.0 0.00 0.15 0.15 73 1009.6
20260509010359 73 228 3.0 9.0 0.00 0.15 0.15 72 1009.5
20260509005856 73 226 0.0 3.0 0.00 0.15 0.15 72 1009.9
20260509005354 73 183 2.0 3.0 0.00 0.15 0.15 72 1009.8
20260509004849 73 61 2.0 4.0 0.00 0.15 0.15 71 1009.8
20260509004345 73 173 3.0 4.0 0.00 0.15 0.15 71 1009.7
20260509003843 74 174 4.0 4.0 0.00 0.15 0.15 71 1009.6
20260509003341 74 215 2.0 3.0 0.00 0.15 0.15 70 1009.5
20260509002838 74 197 7.0 10.0 0.00 0.15 0.15 70 1009.3
20260509002335 74 139 4.0 10.0 0.00 0.15 0.15 69 1009.3
20260509001833 75 174 3.0 8.0 0.00 0.15 0.15 68 1009.3
20260509001328 75 146 3.0 7.0 0.00 0.15 0.15 68 1009.2
20260509000826 75 182 3.0 8.0 0.00 0.15 0.15 68 1009.2
20260509000325 75 148 3.0 7.0 0.00 0.15 0.15 68 1009.2
20260508235820 75 125 3.0 8.0 0.00 0.15 0.15 68 1009.2
20260508235317 75 218 5.0 9.0 0.00 0.15 0.15 68 1009.1
20260508234814 76 187 5.0 11.0 0.00 0.15 0.15 67 1009.2
20260508234310 76 215 6.0 7.0 0.00 0.15 0.15 66 1009.4
20260508233809 76 142 5.0 9.0 0.00 0.15 0.15 65 1009.3
20260508233308 77 134 2.0 6.0 0.00 0.15 0.15 66 1009.4
20260508232804 76 211 3.0 11.0 0.00 0.15 0.15 65 1009.6
20260508232300 77 183 4.0 11.0 0.00 0.15 0.15 63 1009.6
20260508231759 76 233 2.0 7.0 0.00 0.15 0.15 65 1009.6
20260508231255 76 208 5.0 8.0 0.00 0.15 0.15 64 1009.6
20260508230752 77 201 9.0 11.0 0.00 0.15 0.15 64 1009.5
20260508230248 77 183 5.0 7.0 0.00 0.15 0.15 65 1009.6
20260508225746 77 196 5.0 8.0 0.00 0.15 0.15 64 1009.7
20260508225242 77 185 3.0 11.0 0.00 0.15 0.15 65 1009.6
20260508224740 78 219 4.0 5.0 0.00 0.15 0.15 64 1009.7
20260508224237 77 132 5.0 10.0 0.00 0.15 0.15 64 1009.5
20260508223735 77 206 6.0 6.0 0.00 0.15 0.15 65 1009.7
20260508223232 77 155 3.0 9.0 0.00 0.15 0.15 65 1009.6
20260508222729 77 204 6.0 9.0 0.00 0.15 0.15 64 1009.7
20260508222227 77 154 0.0 7.0 0.00 0.15 0.15 63 1009.8
20260508221723 78 160 2.0 8.0 0.00 0.15 0.15 63 1009.8
20260508221219 78 140 3.0 8.0 0.00 0.15 0.15 62 1009.8
20260508220715 78 181 4.0 6.0 0.00 0.15 0.15 62 1009.9
20260508220212 77 141 3.0 11.0 0.00 0.15 0.15 63 1009.6
20260508215708 78 182 6.0 11.0 0.00 0.15 0.15 62 1009.9
20260508215205 79 149 1.0 6.0 0.00 0.15 0.15 60 1009.8
20260508214702 78 182 1.0 8.0 0.00 0.15 0.15 63 1009.8
20260508214200 78 224 4.0 7.0 0.00 0.15 0.15 62 1009.9
20260508213656 78 120 4.0 9.0 0.00 0.15 0.15 61 1009.9
20260508213152 78 94 1.0 7.0 0.00 0.15 0.15 62 1009.8
20260508212649 78 66 3.0 9.0 0.00 0.15 0.15 63 1009.8
20260508212146 78 171 1.0 10.0 0.00 0.15 0.15 62 1009.9
20260508211640 79 11 1.0 5.0 0.00 0.15 0.15 62 1009.7
20260508211137 78 320 2.0 10.0 0.00 0.15 0.15 65 1009.7
20260508210634 79 94 5.0 6.0 0.00 0.15 0.15 61 1009.6
20260508210132 78 120 4.0 5.0 0.00 0.15 0.15 63 1010.1
20260508205629 78 199 2.0 9.0 0.00 0.15 0.15 62 1010.4
20260508205125 78 117 3.0 11.0 0.00 0.15 0.15 63 1010.5
20260508204621 77 130 6.0 13.0 0.00 0.15 0.15 63 1010.7
20260508204117 78 187 6.0 13.0 0.00 0.15 0.15 64 1010.8
20260508203613 78 192 9.0 11.0 0.00 0.15 0.15 63 1010.9
20260508203110 78 237 4.0 12.0 0.00 0.15 0.15 63 1011.1
20260508202606 79 225 4.0 9.0 0.00 0.15 0.15 63 1011.2
20260508202104 78 192 2.0 7.0 0.00 0.15 0.15 63 1011.3
20260508201600 78 202 5.0 14.0 0.00 0.15 0.15 63 1011.5
20260508201057 78 177 6.0 12.0 0.00 0.15 0.15 61 1011.1
20260508200554 79 198 7.0 11.0 0.00 0.15 0.15 60 1011.2
20260508200049 79 149 3.0 9.0 0.00 0.15 0.15 60 1011.5
20260508195546 78 195 4.0 7.0 0.00 0.15 0.15 62 1011.6
20260508195042 76 187 5.0 11.0 0.00 0.15 0.15 64 1011.7
20260508194540 76 181 5.0 8.0 0.00 0.15 0.15 62 1011.9
20260508194037 77 177 3.0 11.0 0.00 0.15 0.15 62 1011.8
20260508193533 77 210 3.0 7.0 0.00 0.15 0.15 62 1011.7
20260508193030 78 196 5.0 7.0 0.00 0.15 0.15 61 1011.7
20260508192527 78 196 2.0 9.0 0.00 0.15 0.15 59 1011.9
20260508192024 78 87 4.0 5.0 0.00 0.15 0.15 62 1011.9
20260508191521 77 218 5.0 10.0 0.00 0.15 0.15 60 1011.9
20260508191017 77 194 5.0 7.0 0.00 0.15 0.15 61 1011.9
20260508190515 77 191 4.0 9.0 0.00 0.15 0.15 63 1011.9
20260508190011 77 204 6.0 8.0 0.00 0.15 0.15 61 1012.0
20260508185508 77 197 5.0 7.0 0.00 0.15 0.15 62 1012.0
20260508185006 76 187 3.0 6.0 0.00 0.15 0.15 62 1012.0
20260508184504 77 93 5.0 7.0 0.00 0.15 0.15 63 1011.9
20260508183959 76 155 5.0 5.0 0.00 0.15 0.15 63 1012.3
20260508183456 75 233 2.0 11.0 0.00 0.15 0.15 64 1012.4
20260508182951 75 180 5.0 7.0 0.00 0.15 0.15 62 1012.4
20260508182449 75 198 5.0 9.0 0.00 0.15 0.15 64 1012.6
20260508181944 75 329 1.0 3.0 0.00 0.15 0.15 65 1012.6
20260508181441 75 215 4.0 9.0 0.00 0.15 0.15 63 1012.7
20260508180939 75 238 3.0 8.0 0.00 0.15 0.15 63 1012.9
20260508180435 74 205 4.0 14.0 0.00 0.15 0.15 65 1012.9
20260508175931 74 113 3.0 5.0 0.00 0.15 0.15 63 1013.0
20260508175428 74 213 3.0 6.0 0.00 0.15 0.15 61 1013.1
20260508174926 74 122 5.0 5.0 0.00 0.15 0.15 63 1013.2
20260508174423 74 180 3.0 7.0 0.00 0.15 0.15 63 1013.3
20260508173919 73 202 8.0 8.0 0.00 0.15 0.15 61 1013.2
20260508173417 73 129 3.0 6.0 0.00 0.15 0.15 65 1013.3
20260508172912 73 100 6.0 8.0 0.00 0.15 0.15 63 1013.4
20260508172410 73 259 2.0 5.0 0.00 0.15 0.15 67 1013.6
20260508171906 72 124 6.0 7.0 0.00 0.15 0.15 65 1013.6
20260508171403 73 113 3.0 9.0 0.00 0.15 0.15 61 1013.6
20260508170900 72 197 6.0 6.0 0.00 0.15 0.15 64 1013.8
20260508170357 72 134 7.0 8.0 0.00 0.15 0.15 63 1013.9
20260508165853 72 50 3.0 5.0 0.00 0.15 0.15 65 1014.2
20260508165351 72 106 3.0 6.0 0.00 0.15 0.15 63 1014.4
20260508164847 71 160 0.0 7.0 0.00 0.15 0.15 69 1014.5
20260508164344 70 143 5.0 9.0 0.00 0.15 0.15 66 1014.3
20260508163842 69 211 4.0 5.0 0.00 0.15 0.15 68 1014.5
20260508163339 69 125 3.0 9.0 0.00 0.15 0.15 67 1014.7
20260508162835 69 80 4.0 8.0 0.00 0.15 0.15 68 1014.7
20260508162332 69 191 2.0 9.0 0.00 0.15 0.15 68 1014.7
20260508161829 69 96 3.0 8.0 0.00 0.00 0.00 70 1015.0
20260508161326 69 210 5.0 13.0 0.00 0.15 0.15 68 1014.8
20260508160824 69 192 4.0 7.0 0.00 0.15 0.15 69 1014.7
20260508160322 68 139 4.0 6.0 0.00 0.15 0.15 73 1014.8
20260508155817 67 142 2.0 11.0 0.00 0.15 0.15 73 1014.9
20260508155314 67 189 2.0 5.0 0.00 0.15 0.15 73 1015.0
20260508154811 68 139 1.0 5.0 0.00 0.15 0.15 73 1014.8
20260508154309 67 144 3.0 5.0 0.00 0.15 0.15 75 1015.1
20260508153805 66 172 0.0 4.0 0.00 0.15 0.15 76 1015.0
20260508153303 66 183 4.0 5.0 0.00 0.15 0.15 76 1015.0
20260508152759 66 183 4.0 4.0 0.00 0.15 0.15 75 1015.1
20260508152256 65 180 6.0 6.0 0.00 0.15 0.15 75 1015.4
20260508151752 65 206 2.0 5.0 0.00 0.15 0.15 76 1015.3
20260508151249 65 189 3.0 4.0 0.00 0.15 0.15 78 1015.5
20260508150745 65 180 3.0 4.0 0.00 0.15 0.15 77 1015.9
20260508150242 65 209 2.0 5.0 0.00 0.15 0.15 76 1015.7
20260508145738 65 176 6.0 9.0 0.00 0.15 0.15 76 1015.5
20260508145234 64 107 2.0 7.0 0.00 0.15 0.15 78 1015.5
20260508144731 64 182 3.0 4.0 0.00 0.15 0.15 78 1015.4
20260508144230 64 114 2.0 6.0 0.00 0.15 0.15 79 1015.3
20260508143727 64 158 4.0 6.0 0.00 0.15 0.15 80 1015.4
20260508143223 64 219 3.0 4.0 0.00 0.15 0.15 81 1015.4
20260508142719 64 144 2.0 6.0 0.00 0.15 0.15 83 1015.5
20260508142217 64 205 3.0 5.0 0.00 0.15 0.15 83 1015.8
20260508141713 64 156 3.0 5.0 0.00 0.15 0.15 84 1015.7
20260508141211 63 184 3.0 5.0 0.00 0.15 0.15 86 1015.6
20260508140708 63 106 0.0 4.0 0.00 0.15 0.15 88 1015.6
20260508140204 63 102 2.0 4.0 0.00 0.15 0.15 87 1015.6
20260508135701 63 105 1.0 4.0 0.00 0.15 0.15 88 1016.0
20260508135156 63 71 2.0 3.0 0.00 0.15 0.15 88 1015.7
20260508134653 62 80 4.0 5.0 0.00 0.15 0.15 89 1015.6
20260508134150 62 135 0.0 3.0 0.00 0.15 0.15 89 1015.8
20260508133647 62 65 1.0 2.0 0.00 0.15 0.15 90 1016.0
20260508133144 61 161 1.0 2.0 0.00 0.15 0.15 90 1015.9
20260508132642 61 49 0.0 2.0 0.00 0.15 0.15 91 1016.0
20260508132139 61 149 1.0 2.0 0.00 0.15 0.15 91 1015.8
20260508131634 61 135 0.0 1.0 0.00 0.15 0.15 91 1016.0
20260508131131 60 107 4.0 5.0 0.00 0.15 0.15 92 1015.8
20260508130628 60 94 4.0 4.0 0.00 0.15 0.15 92 1015.8
20260508130125 60 208 2.0 5.0 0.00 0.15 0.15 92 1015.8
20260508125620 60 95 0.0 3.0 0.00 0.15 0.15 92 1015.6
20260508125118 60 98 2.0 4.0 0.00 0.15 0.15 92 1015.4